Terminal Aerodrome Forecast
Issued by NWS Chicago, IL

Home | Current Version | Previous Version | Text Only | Print | Product List | Glossary Off
Versions: 1 2 3 4 5 6 7 8 9 10 11 12 13 14 15 16 17 18 19 20 21

000
FTUS43 KLOT 200900 AAA
TAFRFD
TAF AMD
KRFD 200900Z 2009/2106 20010KT P6SM SCT200
     FM201300 21011G17KT P6SM FEW200
     FM201600 21015G24KT P6SM FEW200
     FM210100 21016G24KT P6SM SCT200 WS012/22050KT=

USA.gov is the U.S. government's official web portal to all federal, state and local government web resources and services.